Regional Weather Roundup
Issued by NWS

Home | Current Version | Previous Version | Graphics & Text | Print | Product List | Glossary On
Versions: 1 2 3 4 5 6 7 8 9 10 11 12 13 14 15 16 17 18 19 20 21 22 23 24 25 26 27 28 29 30 31 32 33 34 35 36 37 38 39 40 41 42 43 44 45 46 47 48 49 50
000
ASUS43 KOAX 291810
RWRNE

WEATHER ROUNDUP FOR NEBRASKA
NATIONAL WEATHER SERVICE OMAHA NE
100 PM CDT SAT AUG 29 2015

NOTES: SATELLITE DATA IS BEING USED TO AUGMENT CLOUD COVER ABOVE
       12000 FEET.
       "FAIR" INDICATES FEW OR NO CLOUDS BELOW 12,000 FEET WITH NO
       SIGNIFICANT WEATHER AND/OR OBSTRUCTIONS TO VISIBILITY.

  * THESE STATIONS DO NOT REPORT WEATHER SUCH AS RAIN...SNOW OR FOG.

NEZ001>004-019>022-054>056-291900-
NEBRASKA PANHANDLE

CITY           SKY/WX    TMP DP  RH WIND       PRES   REMARKS
SCOTTSBLUFF    SUNNY     83  57  41 E9        30.14F
6HR MIN TEMP:  52; 6HR MAX TEMP:  83;

ALLIANCE       SUNNY     89  41  18 SW14G20   30.14F
6HR MIN TEMP:  46; 6HR MAX TEMP:  89;

CHADRON        SUNNY     93  45  19 S16G22    30.08F HAZE
6HR MIN TEMP:  50; 6HR MAX TEMP:  93;

KIMBALL        SUNNY     84  37  18 S10       30.21F
SIDNEY         SUNNY     88  38  17 S12G21    30.20F
6HR MIN TEMP:  47; 6HR MAX TEMP:  88;

$$

NEZ057>060-069>072-079>082-291900-
SOUTHWEST NEBRASKA

CITY           SKY/WX    TMP DP  RH WIND       PRES   REMARKS
NORTH PLATTE   MOSUNNY   84  62  47 CALM      30.12F
6HR MIN TEMP:  49; 6HR MAX TEMP:  84;

IMPERIAL       SUNNY     88  55  32 W9        30.15F
6HR MIN TEMP:  58; 6HR MAX TEMP:  88;

LEXINGTON      SUNNY     81  64  56 CALM      30.13S
MCCOOK         SUNNY     86  57  37 VRB6      30.13F
6HR MIN TEMP:  54; 6HR MAX TEMP:  86;

OGALLALA       SUNNY     85  57  38 S3        30.14F
$$

NEZ005>010-023>029-035>040-094-291900-
NORTH CENTRAL NEBRASKA

CITY           SKY/WX    TMP DP  RH WIND       PRES   REMARKS
VALENTINE      PTSUNNY   83  57  41 SW8       30.07F
6HR MIN TEMP:  54; 6HR MAX TEMP:  83;

AINSWORTH      PTSUNNY   84  63  49 S5        30.09F
BROKEN BOW     MOSUNNY   81  62  52 CALM      30.12F
6HR MIN TEMP:  58; 6HR MAX TEMP:  82;

O`NEILL        SUNNY     80  65  59 S7        30.08F
ORD            SUNNY     81  64  56 NE5       30.09F
6HR MIN TEMP:  53; 6HR MAX TEMP:  81;

THEDFORD       PTSUNNY   86  57  37 SW7       30.12F
$$

NEZ041-046>049-061>064-073>077-083>087-291900-
SOUTH CENTRAL NEBRASKA

CITY           SKY/WX    TMP DP  RH WIND       PRES   REMARKS
GRAND ISLAND   SUNNY     77  61  57 N8        30.10F
6HR MIN TEMP:  58; 6HR MAX TEMP:  77;

AURORA         SUNNY     74  64  73 N3        30.10F
HASTINGS       SUNNY     76  65  68 NE6       30.10F
6HR MIN TEMP:  60; 6HR MAX TEMP:  76;

HEBRON         SUNNY     72  60  66 NW8       30.08F
HOLDREGE       SUNNY     78  63  60 NW3       30.12F
KEARNEY *      SUNNY     79  63  57 NW7       30.11S
YORK           SUNNY     70  63  78 CALM      30.10F
$$

NEZ011>018-030>034-042>045-291900-
NORTHEAST NEBRASKA

CITY           SKY/WX    TMP DP  RH WIND       PRES   REMARKS
NORFOLK        SUNNY     73  63  70 N5        30.08F
6HR MIN TEMP:  59; 6HR MAX TEMP:  73;

ALBION         SUNNY     76  63  64 CALM      30.09F
BLAIR          CLOUDY    63  59  88 N5        30.08F
COLUMBUS *     SUNNY    N/A N/A N/A CALM      30.09F
FREMONT        CLOUDY    66  60  82 N3        30.10S
TEKAMAH        CLOUDY    65  60  84 N3        30.09F
6HR MIN TEMP:  62; 6HR MAX TEMP:  65;

WAYNE          SUNNY     69  62  78 CALM      30.10S
$$

NEZ050>053-065>068-078-088>093-291900-
SOUTHEAST NEBRASKA

CITY           SKY/WX    TMP DP  RH WIND       PRES   REMARKS
LINCOLN        CLOUDY    67  60  78 NE7       30.10S
6HR MIN TEMP:  61; 6HR MAX TEMP:  67; 6HR PCP: TRACE;

OMAHA EPPLEY   CLOUDY    65  60  84 N6        30.08F
6HR MIN TEMP:  61; 6HR MAX TEMP:  66; 6HR PCP: TRACE;

BEATRICE       CLOUDY    64  60  88 N8        30.09F
FALLS CITY     CLOUDY    68  63  84 N9        30.06S
6HR MIN TEMP:  64; 6HR MAX TEMP:  69;

NEBRASKA CITY  CLOUDY    63  62  98 NE6       30.09R FOG
PLATTSMOUTH    CLOUDY    64  59  86 N6        30.09S
$$

NEZ044-045-051>053-067-291900-
OMAHA AREA

CITY           SKY/WX    TMP DP  RH WIND       PRES   REMARKS
OMAHA EPPLEY   CLOUDY    65  60  84 N6        30.08F
6HR MIN TEMP:  61; 6HR MAX TEMP:  66; 6HR PCP: TRACE;

BLAIR          CLOUDY    63  59  88 N5        30.08F
FREMONT        CLOUDY    66  60  82 N3        30.10S
MILLARD        CLOUDY    66  60  83 N5        30.08F
OFFUTT AFB     CLOUDY    65  59  83 N7        30.08S
PLATTSMOUTH    CLOUDY    64  59  86 N6        30.09S
WAHOO          CLOUDY    65  61  86 N6        30.09S
$$



USA.gov is the U.S. government's official web portal to all federal, state and local government web resources and services.